Precipitable_Water
0.54 0.51 0.47 0.43 0.43 0.43 0.44 0.44 0.46 0.47 0.47 0.47 0.47 0.47 0.47 0.48 0.48 0.48 0.48 0.48 0.49 0.51 0.54 0.54 0.55 0.56 0.55 0.56 0.55 0.53 0.53 0.47 0.41 0.38 0.33 0.38 0.33 0.41 0.52 0.56 0.67 0.80 0.81 0.83 0.83 0.85 0.83 0.85 0.83 0.94 0.91 0.90 0.88 0.94 1.05 1.30 1.41 1.45 1.13 1.07 0.98 1.07 1.07 1.09 1.14 1.17 1.23 1.15 1.16 1.21 1.25 1.14 1.02 1.17 1.21 1.36 1.17 1.02 0.98 0.96 1.00 1.10 1.20 1.28 1.31 1.44 1.48 1.52
0.53 0.50 0.47 0.45 0.44 0.44 0.44 0.44 0.44 0.47 0.48 0.49 0.49 0.49 0.49 0.50 0.49 0.47 0.46 0.47 0.49 0.53 0.56 0.56 0.56 0.56 0.57 0.57 0.57 0.58 0.53 0.40 0.33 0.32 0.32 0.38 0.37 0.47 0.56 0.54 0.66 0.70 0.77 0.72 0.71 0.76 0.76 0.76 0.80 0.87 0.83 0.82 0.77 0.87 1.04 1.16 1.38 1.29 1.11 1.12 0.96 1.11 1.13 1.33 1.31 1.34 1.28 1.19 1.25 1.26 1.25 1.20 1.12 1.19 1.19 1.16 1.07 1.01 0.95 0.94 1.00 0.99 1.11 1.24 1.32 1.40 1.43 1.45
0.54 0.52 0.49 0.46 0.45 0.44 0.44 0.45 0.45 0.46 0.48 0.49 0.50 0.50 0.51 0.51 0.50 0.49 0.47 0.47 0.49 0.52 0.57 0.58 0.57 0.57 0.56 0.58 0.60 0.62 0.51 0.32 0.32 0.24 0.32 0.35 0.42 0.60 0.56 0.56 0.62 0.65 0.72 0.60 0.65 0.67 0.72 0.75 0.77 0.80 0.83 0.71 0.79 0.78 0.90 1.08 1.33 1.23 1.22 0.98 1.12 1.29 1.30 1.41 1.42 1.34 1.39 1.38 1.24 1.21 1.21 1.24 1.20 1.22 1.24 1.16 1.05 1.02 0.91 0.86 0.89 0.93 0.99 1.13 1.25 1.36 1.36 1.42
0.56 0.54 0.51 0.49 0.47 0.46 0.46 0.45 0.45 0.46 0.46 0.47 0.49 0.50 0.50 0.51 0.50 0.49 0.47 0.48 0.50 0.52 0.55 0.58 0.59 0.58 0.57 0.59 0.63 0.65 0.50 0.30 0.23 0.28 0.36 0.33 0.44 0.52 0.56 0.58 0.60 0.61 0.61 0.59 0.61 0.61 0.74 0.80 0.75 0.78 0.71 0.69 0.66 0.78 0.88 0.90 1.20 1.14 1.21 1.09 1.20 1.27 1.25 1.38 1.45 1.43 1.42 1.44 1.30 1.25 1.23 1.18 1.22 1.25 1.19 1.10 0.99 0.96 0.97 0.99 0.92 0.92 1.00 1.13 1.24 1.31 1.36 1.38
0.59 0.57 0.55 0.53 0.50 0.48 0.48 0.47 0.45 0.46 0.47 0.46 0.47 0.49 0.49 0.50 0.50 0.49 0.48 0.48 0.51 0.51 0.53 0.57 0.59 0.60 0.60 0.64 0.67 0.63 0.43 0.35 0.30 0.40 0.45 0.39 0.47 0.49 0.57 0.61 0.61 0.61 0.55 0.54 0.58 0.62 0.72 0.70 0.68 0.73 0.65 0.54 0.63 0.78 0.76 0.89 1.11 1.18 1.10 1.27 1.30 1.27 1.24 1.39 1.45 1.49 1.43 1.46 1.36 1.25 1.12 1.13 1.32 1.23 1.18 1.16 1.02 0.95 0.98 0.95 0.97 0.99 1.06 1.13 1.19 1.28 1.37 1.36
0.60 0.59 0.58 0.56 0.53 0.50 0.50 0.49 0.47 0.46 0.47 0.47 0.47 0.47 0.48 0.49 0.49 0.48 0.48 0.48 0.51 0.51 0.52 0.57 0.60 0.60 0.62 0.65 0.65 0.54 0.39 0.23 0.36 0.46 0.54 0.45 0.51 0.53 0.56 0.63 0.61 0.57 0.50 0.47 0.54 0.55 0.60 0.59 0.59 0.65 0.57 0.53 0.56 0.67 0.77 0.92 1.02 1.00 1.12 1.22 1.30 1.33 1.27 1.43 1.46 1.45 1.44 1.35 1.30 1.19 1.27 1.26 1.19 1.18 1.22 1.20 1.15 1.06 1.15 1.07 1.02 1.03 1.12 1.20 1.26 1.29 1.31 1.33
0.60 0.59 0.58 0.57 0.55 0.52 0.51 0.51 0.49 0.48 0.47 0.47 0.47 0.47 0.47 0.48 0.48 0.48 0.48 0.48 0.50 0.51 0.52 0.56 0.60 0.61 0.63 0.65 0.62 0.46 0.30 0.33 0.39 0.56 0.65 0.51 0.51 0.55 0.59 0.59 0.56 0.49 0.44 0.42 0.50 0.48 0.49 0.50 0.53 0.53 0.59 0.55 0.61 0.79 0.83 0.86 0.98 1.10 1.11 1.18 1.16 1.30 1.24 1.39 1.39 1.44 1.40 1.36 1.31 1.42 1.30 1.18 1.17 1.07 1.23 1.16 1.22 1.19 1.17 1.14 1.10 1.09 1.15 1.21 1.19 1.26 1.28 1.35
0.59 0.58 0.57 0.57 0.56 0.53 0.51 0.51 0.51 0.49 0.48 0.47 0.47 0.47 0.47 0.47 0.48 0.48 0.48 0.47 0.48 0.50 0.52 0.55 0.60 0.61 0.64 0.54 0.43 0.36 0.29 0.32 0.48 0.71 0.62 0.55 0.53 0.57 0.56 0.52 0.47 0.42 0.38 0.39 0.47 0.46 0.50 0.41 0.50 0.55 0.63 0.68 0.87 0.84 0.86 0.88 0.94 0.96 1.05 1.16 1.18 1.24 1.26 1.35 1.43 1.45 1.40 1.41 1.45 1.37 1.17 1.19 1.22 1.27 1.19 1.15 1.22 1.22 1.21 1.19 1.14 1.12 1.12 1.15 1.18 1.22 1.31 1.41
0.59 0.58 0.57 0.56 0.55 0.54 0.51 0.51 0.51 0.50 0.49 0.48 0.47 0.47 0.47 0.47 0.48 0.48 0.47 0.47 0.48 0.50 0.51 0.56 0.60 0.64 0.67 0.50 0.33 0.29 0.30 0.43 0.59 0.67 0.64 0.53 0.54 0.57 0.51 0.39 0.41 0.35 0.32 0.40 0.51 0.53 0.41 0.37 0.50 0.58 0.65 0.73 1.02 0.92 0.92 0.90 0.88 1.01 1.03 1.16 1.15 1.18 1.24 1.32 1.41 1.45 1.41 1.39 1.40 1.24 1.19 1.23 1.29 1.32 1.18 1.24 1.27 1.24 1.24 1.17 1.17 1.15 1.11 1.13 1.16 1.22 1.37 1.44
0.58 0.58 0.57 0.56 0.56 0.55 0.52 0.50 0.51 0.50 0.49 0.48 0.48 0.48 0.47 0.48 0.48 0.48 0.48 0.48 0.48 0.51 0.53 0.57 0.60 0.66 0.55 0.41 0.35 0.28 0.41 0.60 0.65 0.70 0.65 0.59 0.54 0.48 0.42 0.38 0.34 0.29 0.29 0.36 0.54 0.48 0.37 0.39 0.49 0.70 0.82 0.90 1.07 0.90 0.98 0.99 0.96 1.11 1.08 1.11 1.12 1.16 1.22 1.30 1.30 1.38 1.42 1.37 1.35 1.20 1.16 1.19 1.30 1.24 1.05 1.28 1.33 1.25 1.19 1.16 1.17 1.16 1.11 1.12 1.16 1.29 1.43 1.43
0.57 0.58 0.58 0.57 0.55 0.55 0.53 0.51 0.51 0.51 0.50 0.48 0.48 0.49 0.48 0.49 0.49 0.49 0.49 0.49 0.50 0.50 0.52 0.57 0.63 0.61 0.46 0.44 0.31 0.30 0.49 0.60 0.72 0.69 0.62 0.51 0.41 0.35 0.32 0.29 0.28 0.24 0.27 0.42 0.49 0.44 0.42 0.42 0.51 0.63 0.85 1.04 1.11 1.04 1.04 0.97 1.15 1.09 1.06 1.08 1.10 1.14 1.21 1.24 1.29 1.28 1.38 1.27 1.37 1.31 1.17 1.25 1.31 1.19 1.16 1.25 1.32 1.24 1.14 1.13 1.15 1.16 1.14 1.14 1.24 1.36 1.44 1.43
0.58 0.57 0.57 0.57 0.56 0.55 0.54 0.51 0.51 0.51 0.49 0.48 0.48 0.49 0.50 0.51 0.52 0.53 0.52 0.52 0.50 0.51 0.54 0.58 0.60 0.60 0.54 0.42 0.33 0.35 0.49 0.55 0.64 0.61 0.50 0.35 0.31 0.28 0.28 0.25 0.24 0.24 0.35 0.43 0.43 0.44 0.43 0.44 0.49 0.55 0.67 1.12 1.01 1.06 0.97 1.11 1.09 1.06 1.04 0.96 1.02 1.10 1.08 1.18 1.16 1.24 1.29 1.20 1.39 1.32 1.21 1.03 1.10 1.09 1.32 1.34 1.33 1.24 1.16 1.13 1.13 1.15 1.16 1.18 1.30 1.38 1.41 1.41
0.60 0.58 0.57 0.58 0.57 0.55 0.54 0.52 0.50 0.51 0.48 0.47 0.48 0.49 0.53 0.55 0.56 0.55 0.56 0.54 0.54 0.53 0.55 0.61 0.64 0.63 0.50 0.43 0.40 0.48 0.59 0.61 0.60 0.50 0.36 0.28 0.23 0.24 0.24 0.23 0.23 0.35 0.46 0.41 0.41 0.44 0.45 0.45 0.47 0.51 0.78 0.77 1.04 0.95 1.02 1.09 0.97 1.07 0.99 0.92 0.98 0.97 0.99 1.12 1.22 1.23 1.20 1.27 1.33 1.29 0.80 0.89 1.08 1.23 1.30 1.36 1.32 1.26 1.15 1.12 1.12 1.15 1.17 1.20 1.31 1.36 1.38 1.40
0.62 0.60 0.58 0.57 0.57 0.57 0.55 0.53 0.50 0.49 0.48 0.46 0.48 0.52 0.59 0.61 0.61 0.60 0.58 0.56 0.58 0.59 0.61 0.64 0.68 0.61 0.49 0.36 0.42 0.58 0.60 0.60 0.57 0.42 0.29 0.28 0.24 0.23 0.24 0.25 0.34 0.42 0.42 0.41 0.43 0.45 0.45 0.47 0.47 0.49 0.82 1.01 0.97 1.13 1.03 0.89 0.92 0.90 0.94 0.90 0.80 0.81 0.76 1.11 1.14 1.23 1.09 1.28 1.30 1.21 0.85 0.97 1.09 1.20 1.31 1.37 1.36 1.25 1.14 1.14 1.12 1.14 1.16 1.19 1.30 1.35 1.35 1.35
0.62 0.61 0.60 0.58 0.57 0.57 0.56 0.54 0.50 0.48 0.47 0.46 0.48 0.57 0.62 0.62 0.66 0.66 0.65 0.60 0.62 0.65 0.66 0.69 0.68 0.57 0.49 0.44 0.52 0.61 0.57 0.52 0.43 0.36 0.29 0.30 0.28 0.26 0.28 0.33 0.35 0.38 0.40 0.41 0.42 0.43 0.46 0.47 0.47 0.52 0.83 0.96 1.06 0.93 0.80 0.82 0.82 0.79 0.77 0.65 0.78 0.78 0.87 1.05 1.19 1.19 1.08 1.22 1.28 1.14 0.88 0.93 1.10 1.19 1.32 1.38 1.37 1.28 1.17 1.16 1.13 1.14 1.14 1.17 1.27 1.33 1.34 1.35
0.60 0.61 0.60 0.59 0.58 0.57 0.57 0.55 0.51 0.48 0.46 0.45 0.50 0.61 0.62 0.63 0.61 0.62 0.65 0.65 0.67 0.70 0.76 0.63 0.59 0.56 0.40 0.36 0.47 0.57 0.46 0.37 0.35 0.35 0.35 0.35 0.35 0.31 0.32 0.32 0.36 0.37 0.38 0.38 0.43 0.42 0.43 0.49 0.57 0.79 0.71 0.93 0.88 0.73 0.71 0.75 0.72 0.75 0.64 0.58 0.58 0.72 0.82 0.94 1.07 1.24 1.30 1.25 1.26 1.13 0.93 1.01 1.10 1.24 1.35 1.38 1.39 1.31 1.22 1.17 1.14 1.13 1.14 1.16 1.24 1.31 1.35 1.36
0.56 0.58 0.59 0.59 0.58 0.58 0.57 0.56 0.52 0.48 0.45 0.46 0.53 0.62 0.66 0.65 0.63 0.63 0.64 0.66 0.68 0.77 0.71 0.59 0.60 0.57 0.39 0.53 0.58 0.44 0.34 0.35 0.37 0.37 0.36 0.38 0.37 0.31 0.31 0.31 0.31 0.33 0.36 0.38 0.37 0.37 0.37 0.40 0.61 0.55 0.71 0.79 0.73 0.67 0.55 0.54 0.56 0.62 0.61 0.57 0.65 0.62 0.75 0.70 1.02 1.20 1.24 1.26 1.08 1.16 1.07 1.06 1.10 1.29 1.34 1.36 1.37 1.32 1.24 1.18 1.16 1.16 1.16 1.19 1.23 1.28 1.32 1.34
0.51 0.52 0.54 0.56 0.57 0.58 0.57 0.56 0.53 0.47 0.43 0.45 0.54 0.60 0.63 0.68 0.67 0.65 0.66 0.69 0.73 0.71 0.75 0.75 0.64 0.48 0.36 0.45 0.38 0.34 0.36 0.31 0.35 0.39 0.40 0.40 0.39 0.33 0.30 0.25 0.27 0.30 0.31 0.31 0.31 0.30 0.34 0.34 0.42 0.43 0.55 0.61 0.59 0.59 0.51 0.45 0.49 0.50 0.47 0.47 0.51 0.68 0.69 0.72 0.85 0.98 1.16 1.18 1.11 1.10 1.08 1.07 1.09 1.22 1.32 1.33 1.34 1.30 1.25 1.19 1.15 1.17 1.16 1.19 1.22 1.26 1.30 1.32
0.50 0.49 0.50 0.52 0.55 0.57 0.58 0.56 0.54 0.48 0.43 0.47 0.58 0.67 0.68 0.71 0.70 0.64 0.53 0.54 0.44 0.40 0.34 0.44 0.37 0.30 0.28 0.36 0.40 0.39 0.39 0.37 0.39 0.38 0.34 0.37 0.37 0.37 0.31 0.29 0.24 0.25 0.23 0.23 0.24 0.27 0.32 0.33 0.36 0.35 0.34 0.49 0.50 0.53 0.48 0.51 0.52 0.46 0.47 0.45 0.52 0.49 0.62 0.76 0.84 1.00 1.08 0.94 0.99 0.96 0.92 1.00 1.07 1.16 1.30 1.32 1.35 1.29 1.30 1.25 1.20 1.21 1.19 1.19 1.22 1.26 1.30 1.32
0.52 0.51 0.51 0.50 0.52 0.56 0.58 0.57 0.54 0.48 0.43 0.45 0.50 0.53 0.50 0.39 0.38 0.33 0.43 0.44 0.33 0.30 0.34 0.40 0.45 0.42 0.40 0.39 0.36 0.42 0.47 0.39 0.30 0.34 0.37 0.40 0.35 0.30 0.26 0.22 0.19 0.19 0.21 0.18 0.21 0.26 0.29 0.31 0.29 0.33 0.34 0.43 0.56 0.55 0.51 0.50 0.51 0.49 0.48 0.47 0.46 0.51 0.75 0.81 0.90 0.96 1.06 0.96 0.93 1.01 1.01 1.03 1.07 1.16 1.28 1.21 1.31 1.29 1.30 1.24 1.19 1.22 1.22 1.19 1.19 1.24 1.29 1.33
0.54 0.54 0.54 0.52 0.51 0.54 0.58 0.57 0.54 0.48 0.45 0.43 0.45 0.38 0.28 0.28 0.20 0.24 0.28 0.28 0.33 0.37 0.33 0.35 0.38 0.38 0.38 0.40 0.40 0.34 0.31 0.30 0.34 0.32 0.35 0.40 0.34 0.26 0.22 0.19 0.16 0.13 0.14 0.18 0.19 0.22 0.31 0.30 0.31 0.36 0.33 0.41 0.43 0.45 0.46 0.45 0.51 0.47 0.44 0.44 0.43 0.50 0.56 0.78 0.86 0.96 1.05 0.92 0.89 1.01 1.04 1.11 1.14 1.22 1.24 1.27 1.25 1.18 1.22 1.25 1.24 1.24 1.23 1.22 1.19 1.21 1.27 1.35
0.55 0.55 0.55 0.54 0.53 0.54 0.58 0.58 0.55 0.49 0.46 0.45 0.38 0.32 0.33 0.33 0.36 0.39 0.33 0.27 0.35 0.35 0.34 0.36 0.41 0.37 0.42 0.41 0.43 0.40 0.33 0.28 0.26 0.30 0.37 0.34 0.29 0.23 0.21 0.19 0.15 0.14 0.14 0.13 0.14 0.16 0.22 0.26 0.34 0.36 0.39 0.43 0.44 0.41 0.40 0.41 0.42 0.49 0.44 0.40 0.41 0.52 0.69 0.76 0.84 0.93 0.96 0.83 0.84 0.94 0.89 0.98 1.06 1.15 1.25 1.26 1.29 1.28 1.26 1.27 1.29 1.30 1.29 1.25 1.24 1.22 1.25 1.31
0.57 0.57 0.56 0.56 0.54 0.54 0.57 0.58 0.55 0.50 0.44 0.40 0.36 0.32 0.33 0.40 0.45 0.48 0.41 0.32 0.30 0.36 0.32 0.34 0.33 0.35 0.36 0.40 0.42 0.42 0.31 0.23 0.23 0.26 0.31 0.29 0.26 0.24 0.20 0.17 0.15 0.16 0.13 0.11 0.10 0.13 0.17 0.25 0.35 0.36 0.38 0.40 0.38 0.37 0.36 0.39 0.43 0.46 0.41 0.40 0.37 0.56 0.54 0.59 0.70 0.84 0.87 0.80 0.85 0.86 0.81 0.91 1.02 1.07 1.10 1.18 1.26 1.32 1.40 1.34 1.31 1.34 1.34 1.35 1.31 1.28 1.25 1.29
0.58 0.59 0.59 0.58 0.56 0.53 0.58 0.57 0.56 0.50 0.42 0.34 0.33 0.34 0.42 0.45 0.45 0.45 0.36 0.28 0.26 0.31 0.33 0.36 0.36 0.35 0.35 0.34 0.40 0.38 0.30 0.25 0.25 0.22 0.33 0.26 0.22 0.22 0.18 0.17 0.15 0.14 0.11 0.11 0.11 0.11 0.16 0.23 0.30 0.33 0.36 0.38 0.33 0.33 0.34 0.36 0.37 0.47 0.42 0.39 0.37 0.44 0.50 0.62 0.76 0.79 0.83 0.84 0.84 0.78 0.76 0.76 0.84 0.89 0.94 1.06 1.18 1.20 1.34 1.43 1.38 1.37 1.38 1.42 1.45 1.39 1.33 1.31
0.59 0.61 0.62 0.63 0.60 0.58 0.56 0.57 0.46 0.43 0.43 0.35 0.33 0.42 0.44 0.46 0.45 0.47 0.32 0.29 0.29 0.28 0.40 0.38 0.40 0.38 0.41 0.47 0.44 0.36 0.34 0.31 0.28 0.27 0.28 0.27 0.23 0.20 0.19 0.20 0.18 0.12 0.13 0.12 0.11 0.11 0.13 0.20 0.26 0.30 0.36 0.36 0.32 0.30 0.34 0.35 0.33 0.34 0.39 0.40 0.37 0.41 0.54 0.56 0.65 0.67 0.64 0.69 0.75 0.68 0.60 0.54 0.66 0.71 0.80 0.94 1.01 0.98 1.13 1.21 1.30 1.35 1.34 1.35 1.34 1.38 1.39 1.37
0.57 0.59 0.62 0.62 0.61 0.58 0.60 0.51 0.47 0.48 0.40 0.31 0.36 0.42 0.44 0.46 0.47 0.47 0.33 0.24 0.22 0.27 0.31 0.27 0.40 0.34 0.46 0.36 0.39 0.40 0.33 0.29 0.29 0.30 0.29 0.29 0.29 0.24 0.20 0.17 0.20 0.16 0.17 0.13 0.14 0.15 0.16 0.22 0.24 0.28 0.32 0.32 0.31 0.30 0.32 0.35 0.30 0.30 0.40 0.40 0.39 0.46 0.45 0.51 0.59 0.59 0.47 0.42 0.69 0.74 0.51 0.44 0.59 0.59 0.66 0.81 0.86 0.90 0.99 1.05 1.17 1.31 1.38 1.37 1.34 1.35 1.38 1.36
0.56 0.56 0.59 0.61 0.60 0.60 0.45 0.51 0.62 0.51 0.37 0.34 0.36 0.44 0.44 0.44 0.52 0.44 0.26 0.23 0.19 0.30 0.24 0.36 0.31 0.39 0.40 0.41 0.39 0.37 0.25 0.27 0.32 0.33 0.29 0.31 0.26 0.30 0.22 0.20 0.20 0.22 0.22 0.21 0.15 0.15 0.19 0.23 0.25 0.26 0.27 0.28 0.28 0.28 0.33 0.33 0.30 0.27 0.35 0.43 0.44 0.50 0.47 0.49 0.57 0.57 0.63 0.59 0.70 0.69 0.64 0.46 0.45 0.62 0.59 0.69 0.71 0.77 0.86 0.98 1.10 1.22 1.32 1.37 1.36 1.36 1.37 1.40
0.55 0.54 0.57 0.61 0.60 0.60 0.50 0.54 0.53 0.47 0.43 0.43 0.43 0.40 0.44 0.47 0.47 0.44 0.25 0.16 0.17 0.37 0.27 0.32 0.32 0.46 0.35 0.40 0.42 0.31 0.31 0.35 0.24 0.28 0.34 0.32 0.31 0.26 0.26 0.22 0.22 0.22 0.21 0.20 0.20 0.22 0.19 0.21 0.22 0.25 0.28 0.27 0.27 0.28 0.31 0.31 0.28 0.42 0.39 0.43 0.50 0.51 0.53 0.54 0.55 0.57 0.58 0.52 0.51 0.61 0.57 0.44 0.43 0.55 0.62 0.63 0.66 0.68 0.75 0.87 1.03 1.15 1.25 1.35 1.39 1.36 1.38 1.42
0.54 0.52 0.54 0.58 0.59 0.59 0.60 0.54 0.56 0.50 0.55 0.53 0.46 0.43 0.42 0.48 0.41 0.26 0.23 0.17 0.36 0.34 0.42 0.30 0.39 0.37 0.34 0.39 0.35 0.31 0.29 0.32 0.25 0.31 0.33 0.33 0.33 0.29 0.23 0.24 0.24 0.24 0.24 0.24 0.23 0.21 0.21 0.22 0.26 0.27 0.28 0.27 0.28 0.30 0.32 0.30 0.26 0.38 0.47 0.47 0.48 0.51 0.52 0.54 0.54 0.51 0.55 0.41 0.38 0.50 0.53 0.34 0.35 0.52 0.61 0.60 0.61 0.67 0.71 0.83 0.97 1.08 1.20 1.28 1.34 1.38 1.39 1.44
0.54 0.52 0.56 0.61 0.61 0.57 0.52 0.58 0.52 0.63 0.61 0.57 0.49 0.45 0.43 0.39 0.30 0.18 0.16 0.14 0.37 0.27 0.31 0.32 0.29 0.28 0.32 0.30 0.30 0.31 0.27 0.26 0.28 0.31 0.30 0.27 0.29 0.30 0.29 0.29 0.25 0.23 0.22 0.24 0.24 0.26 0.27 0.30 0.33 0.29 0.27 0.27 0.30 0.31 0.31 0.32 0.42 0.41 0.42 0.41 0.39 0.42 0.48 0.49 0.53 0.52 0.47 0.36 0.42 0.49 0.50 0.46 0.30 0.40 0.48 0.51 0.65 0.55 0.70 0.81 0.89 0.97 1.11 1.25 1.33 1.38 1.38 1.40
0.54 0.55 0.62 0.71 0.59 0.60 0.55 0.43 0.52 0.63 0.61 0.59 0.51 0.43 0.38 0.32 0.22 0.19 0.14 0.27 0.33 0.30 0.33 0.31 0.28 0.30 0.27 0.26 0.24 0.29 0.28 0.27 0.27 0.28 0.24 0.27 0.27 0.28 0.28 0.24 0.29 0.23 0.24 0.22 0.23 0.25 0.28 0.30 0.30 0.30 0.31 0.34 0.36 0.35 0.41 0.40 0.39 0.39 0.42 0.40 0.42 0.45 0.44 0.45 0.50 0.46 0.35 0.33 0.49 0.50 0.43 0.49 0.24 0.32 0.48 0.57 0.59 0.65 0.63 0.67 0.80 0.93 1.02 1.11 1.25 1.36 1.41 1.39
0.54 0.59 0.73 0.71 0.70 0.72 0.51 0.47 0.54 0.62 0.59 0.57 0.46 0.34 0.29 0.20 0.19 0.15 0.17 0.32 0.24 0.28 0.26 0.27 0.30 0.27 0.26 0.27 0.26 0.26 0.25 0.27 0.28 0.25 0.22 0.22 0.24 0.23 0.24 0.23 0.24 0.21 0.17 0.19 0.21 0.24 0.25 0.27 0.31 0.30 0.30 0.32 0.34 0.32 0.33 0.37 0.37 0.36 0.36 0.36 0.29 0.38 0.38 0.38 0.43 0.35 0.33 0.34 0.53 0.52 0.47 0.34 0.33 0.33 0.43 0.59 0.57 0.62 0.68 0.70 0.82 0.91 0.98 1.06 1.15 1.27 1.38 1.45
0.55 0.66 0.76 0.74 0.73 0.66 0.66 0.67 0.65 0.61 0.59 0.51 0.37 0.32 0.22 0.20 0.15 0.16 0.18 0.24 0.25 0.32 0.28 0.32 0.28 0.27 0.26 0.24 0.24 0.26 0.28 0.24 0.27 0.25 0.24 0.24 0.24 0.25 0.27 0.26 0.28 0.25 0.22 0.21 0.23 0.20 0.24 0.29 0.29 0.30 0.29 0.32 0.33 0.26 0.31 0.30 0.29 0.33 0.32 0.31 0.24 0.26 0.28 0.22 0.29 0.34 0.30 0.43 0.48 0.40 0.51 0.24 0.28 0.35 0.50 0.49 0.64 0.67 0.68 0.82 0.90 0.93 0.99 1.03 1.11 1.22 1.31 1.40
0.58 0.73 0.72 0.74 0.71 0.72 0.72 0.75 0.70 0.66 0.52 0.42 0.34 0.24 0.23 0.17 0.17 0.24 0.21 0.25 0.27 0.33 0.31 0.28 0.28 0.27 0.26 0.23 0.24 0.25 0.22 0.25 0.25 0.24 0.22 0.23 0.22 0.23 0.25 0.25 0.26 0.25 0.27 0.27 0.22 0.21 0.21 0.20 0.25 0.28 0.24 0.29 0.29 0.30 0.35 0.29 0.33 0.32 0.38 0.31 0.27 0.24 0.21 0.19 0.20 0.20 0.22 0.35 0.44 0.56 0.27 0.26 0.26 0.53 0.62 0.65 0.70 0.73 0.82 0.87 0.92 0.97 1.01 1.07 1.14 1.19 1.26 1.35
0.64 0.76 0.74 0.71 0.70 0.74 0.74 0.73 0.68 0.64 0.52 0.36 0.29 0.22 0.17 0.17 0.20 0.19 0.19 0.25 0.28 0.30 0.27 0.30 0.27 0.25 0.25 0.25 0.26 0.26 0.25 0.22 0.24 0.23 0.20 0.20 0.20 0.21 0.23 0.23 0.26 0.28 0.28 0.23 0.23 0.25 0.23 0.25 0.29 0.30 0.31 0.29 0.27 0.29 0.34 0.29 0.29 0.36 0.36 0.33 0.22 0.23 0.29 0.19 0.30 0.25 0.24 0.25 0.34 0.43 0.29 0.38 0.40 0.67 0.70 0.64 0.70 0.78 0.77 0.81 0.91 0.90 0.98 1.04 1.05 1.09 1.17 1.27
0.68 0.72 0.75 0.66 0.64 0.70 0.72 0.69 0.67 0.60 0.45 0.33 0.24 0.20 0.18 0.21 0.19 0.19 0.24 0.25 0.26 0.24 0.25 0.28 0.27 0.23 0.24 0.24 0.26 0.25 0.26 0.22 0.23 0.22 0.21 0.20 0.23 0.21 0.24 0.27 0.28 0.29 0.28 0.24 0.29 0.21 0.23 0.23 0.30 0.32 0.32 0.30 0.30 0.30 0.30 0.32 0.25 0.37 0.26 0.22 0.26 0.33 0.25 0.27 0.27 0.30 0.28 0.24 0.22 0.41 0.37 0.39 0.49 0.49 0.53 0.61 0.65 0.73 0.74 0.80 0.83 0.85 0.92 0.97 1.01 1.06 1.13 1.23
0.60 0.72 0.63 0.63 0.59 0.67 0.72 0.68 0.63 0.55 0.41 0.33 0.23 0.20 0.22 0.23 0.26 0.27 0.26 0.21 0.23 0.25 0.25 0.21 0.24 0.23 0.22 0.22 0.23 0.23 0.24 0.24 0.23 0.21 0.19 0.22 0.22 0.24 0.26 0.28 0.31 0.31 0.31 0.29 0.28 0.31 0.26 0.26 0.31 0.30 0.31 0.34 0.37 0.34 0.34 0.33 0.36 0.31 0.24 0.27 0.34 0.34 0.36 0.31 0.30 0.38 0.30 0.25 0.33 0.34 0.28 0.30 0.38 0.36 0.64 0.70 0.63 0.70 0.76 0.78 0.82 0.86 0.89 0.88 0.96 1.03 1.09 1.20
0.58 0.67 0.65 0.61 0.61 0.66 0.70 0.69 0.59 0.48 0.37 0.31 0.23 0.30 0.28 0.20 0.24 0.24 0.24 0.24 0.23 0.25 0.23 0.22 0.24 0.25 0.23 0.23 0.23 0.23 0.24 0.21 0.22 0.21 0.20 0.23 0.21 0.27 0.26 0.26 0.30 0.31 0.32 0.33 0.29 0.32 0.29 0.25 0.29 0.32 0.36 0.36 0.37 0.36 0.33 0.36 0.37 0.37 0.40 0.43 0.31 0.36 0.33 0.40 0.29 0.30 0.29 0.28 0.30 0.31 0.33 0.29 0.31 0.37 0.50 0.60 0.58 0.66 0.75 0.78 0.81 0.87 0.86 0.88 0.93 1.01 1.07 1.14
0.61 0.66 0.57 0.63 0.71 0.65 0.64 0.66 0.53 0.41 0.34 0.27 0.25 0.23 0.26 0.25 0.26 0.21 0.22 0.23 0.24 0.22 0.22 0.23 0.22 0.26 0.26 0.23 0.24 0.25 0.24 0.20 0.22 0.21 0.19 0.23 0.20 0.26 0.26 0.27 0.28 0.31 0.32 0.33 0.28 0.30 0.30 0.25 0.30 0.33 0.33 0.35 0.36 0.34 0.30 0.33 0.38 0.41 0.41 0.37 0.41 0.35 0.38 0.34 0.36 0.32 0.25 0.24 0.24 0.28 0.31 0.30 0.43 0.42 0.43 0.51 0.60 0.68 0.76 0.76 0.80 0.85 0.85 0.88 0.92 0.98 1.04 1.08
0.48 0.59 0.54 0.71 0.70 0.67 0.65 0.56 0.45 0.37 0.33 0.26 0.26 0.24 0.27 0.22 0.22 0.23 0.23 0.23 0.22 0.22 0.21 0.21 0.25 0.25 0.25 0.27 0.27 0.24 0.24 0.23 0.22 0.22 0.21 0.25 0.22 0.29 0.26 0.29 0.28 0.30 0.31 0.32 0.30 0.32 0.30 0.29 0.25 0.33 0.36 0.33 0.29 0.31 0.30 0.38 0.35 0.34 0.35 0.36 0.37 0.37 0.44 0.36 0.37 0.33 0.30 0.26 0.25 0.24 0.23 0.32 0.47 0.44 0.47 0.56 0.66 0.73 0.79 0.79 0.81 0.85 0.89 0.93 0.97 1.00 1.03 1.09
0.53 0.46 0.55 0.76 0.71 0.67 0.62 0.47 0.38 0.32 0.29 0.29 0.28 0.27 0.25 0.22 0.27 0.26 0.28 0.27 0.24 0.25 0.23 0.23 0.22 0.22 0.24 0.24 0.25 0.27 0.26 0.24 0.23 0.22 0.22 0.23 0.23 0.22 0.27 0.28 0.30 0.29 0.30 0.30 0.29 0.31 0.29 0.28 0.25 0.31 0.29 0.27 0.30 0.38 0.36 0.40 0.41 0.38 0.37 0.37 0.38 0.37 0.35 0.28 0.31 0.43 0.36 0.29 0.28 0.26 0.25 0.31 0.44 0.49 0.46 0.60 0.68 0.74 0.76 0.79 0.81 0.87 0.92 0.94 0.98 1.02 1.05 1.07
0.48 0.48 0.56 0.76 0.75 0.69 0.53 0.38 0.35 0.36 0.31 0.28 0.29 0.27 0.32 0.36 0.27 0.29 0.30 0.28 0.23 0.23 0.26 0.24 0.25 0.23 0.24 0.24 0.26 0.27 0.26 0.25 0.24 0.23 0.24 0.22 0.25 0.24 0.29 0.30 0.29 0.30 0.27 0.26 0.28 0.32 0.33 0.33 0.28 0.27 0.27 0.30 0.39 0.41 0.41 0.40 0.40 0.39 0.39 0.38 0.42 0.40 0.38 0.34 0.27 0.36 0.39 0.35 0.34 0.33 0.25 0.31 0.48 0.50 0.54 0.58 0.67 0.73 0.76 0.78 0.82 0.86 0.90 0.94 0.97 1.02 1.07 1.10
0.48 0.42 0.61 0.72 0.82 0.64 0.55 0.45 0.42 0.38 0.33 0.42 0.41 0.39 0.39 0.37 0.34 0.38 0.29 0.31 0.24 0.25 0.23 0.23 0.24 0.24 0.25 0.25 0.28 0.28 0.28 0.26 0.26 0.24 0.25 0.25 0.25 0.27 0.30 0.30 0.30 0.29 0.29 0.30 0.33 0.34 0.34 0.29 0.26 0.29 0.34 0.32 0.36 0.39 0.42 0.40 0.39 0.35 0.36 0.39 0.38 0.35 0.37 0.36 0.35 0.39 0.31 0.38 0.33 0.34 0.28 0.35 0.53 0.52 0.60 0.61 0.68 0.74 0.72 0.79 0.82 0.85 0.90 0.94 0.94 0.97 1.02 1.03
0.54 0.51 0.58 0.74 0.80 0.71 0.51 0.43 0.44 0.45 0.46 0.51 0.46 0.46 0.47 0.45 0.41 0.37 0.34 0.36 0.29 0.26 0.22 0.23 0.25 0.25 0.28 0.32 0.31 0.29 0.30 0.24 0.27 0.25 0.25 0.26 0.25 0.30 0.30 0.30 0.31 0.29 0.28 0.32 0.29 0.34 0.27 0.32 0.29 0.28 0.26 0.30 0.31 0.33 0.36 0.40 0.39 0.36 0.38 0.42 0.40 0.40 0.40 0.40 0.38 0.40 0.28 0.32 0.34 0.29 0.24 0.32 0.50 0.62 0.57 0.61 0.65 0.67 0.71 0.77 0.77 0.81 0.85 0.89 0.90 0.95 0.98 1.01
0.61 0.66 0.61 0.68 0.75 0.65 0.50 0.53 0.49 0.48 0.50 0.48 0.49 0.47 0.48 0.48 0.47 0.46 0.42 0.40 0.39 0.33 0.30 0.25 0.27 0.32 0.28 0.31 0.32 0.33 0.33 0.28 0.29 0.27 0.28 0.28 0.27 0.30 0.30 0.30 0.31 0.31 0.32 0.41 0.37 0.37 0.29 0.33 0.28 0.24 0.23 0.22 0.23 0.25 0.27 0.31 0.31 0.35 0.42 0.45 0.40 0.38 0.40 0.35 0.31 0.39 0.30 0.36 0.37 0.30 0.29 0.40 0.50 0.53 0.56 0.56 0.64 0.63 0.69 0.76 0.79 0.80 0.84 0.81 0.86 0.89 0.92 0.96
0.57 0.52 0.55 0.67 0.67 0.67 0.60 0.61 0.56 0.52 0.50 0.50 0.46 0.50 0.50 0.46 0.53 0.52 0.49 0.44 0.42 0.38 0.32 0.33 0.33 0.31 0.30 0.31 0.30 0.32 0.31 0.33 0.28 0.30 0.28 0.26 0.28 0.30 0.31 0.30 0.31 0.32 0.37 0.36 0.36 0.34 0.32 0.36 0.30 0.28 0.28 0.27 0.29 0.35 0.39 0.39 0.40 0.35 0.39 0.36 0.38 0.39 0.43 0.40 0.38 0.37 0.32 0.43 0.38 0.38 0.33 0.38 0.43 0.49 0.51 0.58 0.61 0.60 0.63 0.68 0.69 0.73 0.78 0.82 0.84 0.87 0.89 0.91
0.68 0.57 0.51 0.49 0.56 0.60 0.59 0.59 0.56 0.53 0.50 0.54 0.45 0.53 0.46 0.48 0.53 0.51 0.55 0.44 0.44 0.40 0.38 0.33 0.31 0.26 0.28 0.28 0.29 0.31 0.34 0.32 0.31 0.29 0.28 0.28 0.30 0.31 0.32 0.31 0.32 0.36 0.37 0.33 0.35 0.34 0.33 0.27 0.29 0.31 0.31 0.31 0.35 0.35 0.37 0.33 0.31 0.33 0.34 0.38 0.40 0.39 0.42 0.39 0.37 0.38 0.45 0.39 0.29 0.37 0.45 0.37 0.39 0.44 0.47 0.50 0.55 0.61 0.62 0.67 0.68 0.71 0.78 0.82 0.84 0.84 0.86 0.90
0.63 0.67 0.65 0.67 0.49 0.55 0.55 0.60 0.58 0.54 0.54 0.52 0.50 0.53 0.48 0.49 0.50 0.47 0.56 0.53 0.51 0.50 0.35 0.36 0.30 0.30 0.35 0.32 0.35 0.30 0.33 0.32 0.33 0.29 0.29 0.29 0.30 0.31 0.30 0.32 0.33 0.38 0.35 0.33 0.38 0.33 0.29 0.26 0.29 0.29 0.29 0.32 0.32 0.32 0.32 0.32 0.32 0.33 0.34 0.34 0.39 0.40 0.39 0.36 0.38 0.40 0.41 0.34 0.31 0.43 0.45 0.42 0.41 0.44 0.51 0.52 0.55 0.58 0.60 0.64 0.71 0.79 0.77 0.77 0.80 0.82 0.82 0.81
0.74 0.74 0.69 0.72 0.57 0.59 0.54 0.59 0.57 0.55 0.54 0.53 0.51 0.51 0.47 0.48 0.47 0.53 0.52 0.53 0.50 0.48 0.44 0.35 0.34 0.39 0.36 0.37 0.34 0.31 0.37 0.30 0.30 0.33 0.33 0.32 0.29 0.30 0.29 0.31 0.38 0.39 0.35 0.34 0.33 0.40 0.33 0.27 0.35 0.31 0.30 0.30 0.30 0.31 0.33 0.31 0.33 0.31 0.32 0.34 0.36 0.39 0.39 0.38 0.38 0.40 0.39 0.34 0.36 0.38 0.43 0.40 0.43 0.49 0.53 0.61 0.59 0.63 0.67 0.71 0.70 0.71 0.75 0.75 0.76 0.76 0.78 0.80
0.75 0.71 0.70 0.73 0.63 0.55 0.51 0.49 0.48 0.48 0.47 0.55 0.44 0.52 0.50 0.50 0.47 0.53 0.56 0.51 0.47 0.48 0.52 0.40 0.46 0.42 0.38 0.36 0.35 0.32 0.39 0.39 0.44 0.38 0.39 0.32 0.33 0.33 0.32 0.31 0.33 0.35 0.35 0.32 0.32 0.35 0.29 0.35 0.32 0.32 0.28 0.29 0.30 0.31 0.32 0.31 0.31 0.30 0.32 0.32 0.33 0.35 0.35 0.36 0.35 0.37 0.39 0.34 0.37 0.36 0.36 0.36 0.52 0.57 0.61 0.62 0.65 0.67 0.65 0.64 0.69 0.76 0.75 0.74 0.75 0.75 0.77 0.79
0.85 0.87 0.82 0.67 0.60 0.59 0.57 0.52 0.49 0.47 0.43 0.46 0.44 0.48 0.51 0.50 0.50 0.55 0.54 0.59 0.53 0.51 0.51 0.46 0.46 0.45 0.44 0.38 0.36 0.38 0.43 0.43 0.43 0.43 0.43 0.40 0.35 0.40 0.35 0.37 0.38 0.34 0.32 0.33 0.32 0.36 0.29 0.42 0.34 0.31 0.26 0.28 0.32 0.29 0.30 0.31 0.31 0.29 0.30 0.30 0.31 0.31 0.30 0.32 0.32 0.35 0.34 0.33 0.34 0.34 0.35 0.34 0.59 0.58 0.61 0.64 0.62 0.62 0.63 0.68 0.72 0.73 0.74 0.76 0.75 0.75 0.76 0.79
0.88 0.91 0.86 0.77 0.61 0.70 0.57 0.62 0.56 0.49 0.40 0.43 0.46 0.51 0.50 0.52 0.55 0.55 0.49 0.58 0.59 0.58 0.56 0.53 0.53 0.48 0.46 0.41 0.42 0.41 0.44 0.46 0.48 0.48 0.48 0.47 0.46 0.45 0.42 0.42 0.38 0.39 0.34 0.33 0.34 0.32 0.30 0.36 0.31 0.29 0.25 0.26 0.32 0.31 0.31 0.30 0.29 0.27 0.27 0.29 0.31 0.32 0.31 0.33 0.36 0.42 0.38 0.36 0.33 0.34 0.37 0.42 0.67 0.68 0.59 0.62 0.63 0.66 0.71 0.70 0.72 0.75 0.77 0.77 0.76 0.74 0.76 0.75
Wind_Speed
10 10 10 11 11 11 11 11 10 10 10 10 10 10 10 10 10 10 9 9 10 10 9 9 9 8 8 8 7 7 6 6 6 7 8 7 7 7 7 7 7 7 7 6 5 6 5 4 3 3 2 1 1 1 2 3 3 4 5 5 5 5 5 4 4 5 5 6 6 6 5 5 6 5 5 5 6 7 6 6 6 6 7 8 10 11 10 9
10 10 11 11 11 11 11 11 11 11 11 11 10 10 10 10 10 10 10 9 10 10 9 9 9 9 8 8 7 7 6 5 6 6 7 7 7 8 7 8 7 7 7 6 7 7 6 4 4 4 3 2 1 2 2 3 3 4 4 5 4 5 5 4 4 4 4 5 6 5 5 5 5 5 5 5 6 6 6 6 6 7 8 9 10 11 10 9
11 11 11 11 12 12 12 12 11 11 11 11 11 10 10 10 10 10 10 10 10 10 9 9 9 9 9 8 7 6 5 4 5 5 5 6 7 8 8 8 8 8 7 7 7 6 5 4 4 4 3 2 2 2 2 3 3 3 4 4 4 5 5 4 4 4 2 4 6 5 5 5 5 5 5 5 6 6 5 6 6 7 9 9 10 10 10 8
11 11 12 12 12 12 12 12 12 11 11 11 11 11 11 10 11 11 10 10 10 10 10 9 9 9 9 8 7 6 5 5 4 3 5 6 7 8 9 8 8 8 7 7 7 7 6 5 5 4 3 2 2 3 3 3 3 3 3 3 3 5 5 4 4 4 3 4 5 5 5 5 5 5 5 5 6 5 5 5 5 7 9 10 10 9 9 8
12 12 12 12 12 12 12 12 12 12 11 11 11 11 11 11 11 11 10 10 10 10 10 9 9 9 9 8 7 5 5 4 3 3 5 7 7 8 9 8 9 8 8 8 8 7 7 6 6 5 4 3 2 3 3 3 4 3 3 3 3 3 4 4 4 4 4 5 6 6 6 6 6 5 5 5 5 5 5 5 5 7 9 10 9 9 8 7
12 12 12 12 12 12 13 12 12 12 12 12 11 11 11 11 11 11 10 10 10 10 9 9 9 9 9 8 6 5 5 4 3 4 6 7 8 8 9 9 9 9 8 8 8 8 8 7 6 5 4 3 2 3 3 3 4 3 3 3 3 3 3 4 4 4 5 6 7 6 5 6 6 5 4 4 4 4 5 6 6 7 9 9 9 8 8 7
12 12 12 12 12 13 13 13 12 12 12 12 12 12 11 11 11 11 10 10 10 10 9 9 9 9 9 8 6 5 4 4 3 3 5 7 9 9 9 9 9 9 9 9 10 9 8 7 6 5 4 4 3 3 3 4 4 3 3 3 3 3 3 3 4 5 6 6 6 5 5 6 5 5 4 4 4 4 5 6 6 7 9 9 9 8 7 6
13 13 13 13 13 13 13 13 13 13 12 12 12 12 12 11 11 11 11 10 10 9 9 9 9 9 8 7 6 5 4 3 3 3 4 6 8 9 10 9 9 10 10 10 10 9 9 7 6 6 5 4 3 4 4 4 3 2 3 3 3 3 3 2 4 6 6 6 6 6 6 6 4 4 4 4 4 4 5 6 7 7 8 8 8 8 7 6
13 13 13 13 13 14 14 14 13 13 13 12 12 12 12 12 11 11 10 10 9 9 9 9 8 8 8 7 7 5 4 4 4 3 4 5 7 10 10 10 10 10 10 10 10 10 9 7 6 6 5 4 4 4 5 4 3 2 3 3 3 3 3 2 4 6 6 6 7 7 7 6 5 4 5 4 4 5 6 7 7 7 8 7 7 7 7 6
13 13 14 14 14 14 14 14 14 13 13 13 13 12 12 12 11 11 10 10 9 9 8 8 8 8 7 7 7 6 4 4 4 3 4 5 6 9 11 11 11 11 11 10 10 9 8 7 6 6 6 5 5 4 4 3 2 3 4 4 3 3 3 3 4 5 6 6 6 8 8 7 6 5 5 4 5 6 6 7 7 7 7 7 7 7 6 6
14 14 14 15 15 15 14 14 14 14 14 14 13 13 12 11 11 10 10 9 9 8 7 7 7 7 7 7 7 5 4 5 4 3 4 5 6 8 10 10 11 11 11 10 10 9 8 7 7 7 6 6 6 5 4 3 3 4 4 4 3 3 4 4 5 6 7 7 7 8 8 7 7 5 4 4 5 7 7 7 7 7 7 7 8 7 6 5
14 15 15 15 15 15 15 15 15 15 14 14 13 13 12 11 11 10 9 9 8 7 6 7 7 7 8 7 6 5 5 4 3 3 3 4 6 7 8 10 11 11 11 10 10 9 8 8 8 7 7 7 6 5 4 4 4 4 4 3 3 3 4 4 6 7 8 8 7 9 8 8 8 6 4 4 6 7 7 7 7 7 7 7 8 7 6 5
15 15 15 16 16 16 16 16 16 15 15 14 13 13 12 11 10 10 9 8 7 6 6 6 6 7 8 7 5 5 5 4 3 3 3 3 4 6 7 9 10 10 10 9 9 9 8 8 8 7 7 7 6 5 5 4 4 3 3 3 2 3 3 3 6 8 8 8 8 9 9 9 8 5 5 5 6 7 7 7 7 7 7 8 8 7 6 6
15 16 16 16 16 17 17 17 16 16 15 14 13 12 12 11 10 9 8 7 6 6 5 6 6 7 7 6 5 5 5 4 3 3 3 3 3 5 6 8 10 10 9 9 9 9 8 8 8 8 8 8 6 6 6 5 4 3 1 2 2 2 2 2 5 8 9 8 9 10 8 8 8 6 6 6 7 8 8 7 7 7 8 8 8 7 7 6
16 16 17 17 17 17 17 17 17 16 15 13 12 12 11 11 9 8 7 7 6 5 5 6 6 7 7 5 5 5 4 3 3 3 3 3 4 4 6 8 9 9 9 9 9 9 8 8 8 8 8 7 8 8 6 5 4 3 1 1 1 1 1 1 2 7 8 8 9 10 8 7 7 6 6 7 7 8 8 7 7 7 8 8 8 7 6 6
17 17 17 18 18 17 17 17 17 16 15 13 12 11 10 10 8 7 7 6 6 5 6 7 7 7 8 5 4 4 3 2 2 3 3 4 4 4 6 7 8 9 9 9 9 9 9 10 9 8 8 8 8 7 6 5 4 3 1 0 2 2 1 2 2 4 6 7 9 10 8 6 6 5 6 7 7 8 8 7 7 8 8 9 8 7 6 6
18 18 18 18 18 18 18 17 17 16 14 12 11 10 9 8 7 7 7 6 6 6 7 8 7 7 7 5 4 4 3 2 2 3 4 4 4 4 5 6 7 8 9 10 10 10 10 10 9 9 9 8 8 7 6 5 4 3 2 1 1 2 2 2 2 4 5 6 9 9 8 5 5 6 6 7 8 8 8 8 8 8 9 9 8 7 7 6
19 19 19 18 18 18 17 17 17 15 13 12 10 9 9 8 7 8 8 7 7 7 8 8 7 7 6 4 4 3 2 1 3 3 4 4 4 5 5 5 6 8 10 10 11 11 10 10 10 9 10 9 9 9 7 4 3 2 2 1 1 1 2 2 3 5 6 6 7 7 7 6 7 7 6 7 9 9 8 8 8 8 8 8 8 7 7 6
20 20 19 19 18 18 17 17 16 14 12 11 9 9 9 9 9 9 9 8 8 8 8 7 6 7 5 3 3 3 2 2 3 3 4 5 5 5 5 5 6 7 9 10 12 12 10 10 11 10 10 10 10 10 6 3 4 4 3 2 2 0 1 2 3 5 6 6 6 5 4 8 9 8 7 8 9 9 9 9 8 8 8 8 8 7 7 6
21 21 20 19 18 18 17 17 16 13 12 10 9 9 9 9 9 9 9 9 10 10 10 7 7 7 5 3 3 3 2 3 3 4 5 5 5 5 5 5 6 7 8 10 11 12 11 10 12 11 10 10 10 9 7 5 5 5 5 4 3 2 2 2 3 5 5 5 5 5 4 7 9 7 7 8 8 9 9 9 9 9 9 8 8 8 7 7
22 21 20 20 19 18 17 17 15 13 12 10 9 9 9 9 9 9 10 11 9 9 10 8 7 7 5 4 2 2 2 3 4 5 5 5 6 6 5 6 7 6 8 9 9 11 12 12 12 10 8 8 9 8 8 7 6 6 6 5 3 3 3 3 3 4 5 4 4 6 5 6 7 6 7 8 8 9 10 10 10 10 9 9 8 8 8 7
22 21 21 20 19 18 17 17 15 13 11 10 9 9 9 9 9 10 11 11 9 8 8 7 6 6 5 4 3 3 3 4 5 6 6 6 7 6 6 7 7 6 7 8 9 11 13 13 12 10 8 9 8 8 8 8 7 7 6 5 4 4 4 4 4 5 5 5 3 5 6 6 6 6 7 8 8 9 10 10 10 10 10 10 9 9 8 8
22 22 22 21 20 19 17 17 15 13 11 10 10 9 8 8 10 10 10 11 9 7 7 6 5 5 4 4 3 3 4 4 5 6 7 7 7 6 6 7 6 5 6 8 10 11 12 13 12 11 10 10 9 8 9 8 7 8 7 6 4 4 5 4 5 6 5 5 4 4 5 5 6 7 7 8 8 8 9 10 11 11 11 11 10 10 9 9
22 22 22 21 20 19 18 17 15 12 11 11 10 9 9 9 10 10 9 10 8 6 5 5 5 5 3 2 3 4 4 3 5 6 7 8 7 6 6 7 6 6 6 8 10 10 10 9 10 11 11 11 9 9 9 8 7 8 6 6 5 5 5 4 5 6 6 6 5 5 6 5 5 7 7 7 8 8 9 10 11 12 12 12 12 11 11 10
21 21 21 20 19 18 18 16 13 11 12 12 10 9 9 9 10 9 9 9 7 5 4 4 4 4 3 2 2 4 3 3 4 5 7 8 7 6 6 6 6 6 7 8 8 9 8 7 8 10 11 11 10 9 9 9 8 7 5 5 5 5 5 5 6 6 5 6 6 6 6 4 4 6 6 6 7 8 9 10 11 12 13 13 13 13 12 12
20 20 20 19 18 17 16 12 11 12 13 11 10 9 10 10 9 8 8 8 6 4 4 5 4 3 3 3 3 3 3 3 3 4 7 8 8 6 6 6 6 5 6 7 7 6 6 7 8 8 9 10 9 8 8 8 8 6 5 5 5 5 5 6 7 6 6 5 6 7 6 5 4 5 5 5 7 8 9 10 10 11 12 13 14 14 13 12
20 19 19 18 17 16 13 11 12 13 12 10 10 10 10 9 8 7 7 7 6 4 4 4 4 4 3 4 4 3 2 3 4 5 7 8 8 7 6 7 6 5 6 6 6 5 7 9 9 8 8 9 9 7 7 8 7 4 4 5 5 6 6 7 7 7 6 5 6 7 7 7 6 5 4 5 6 7 8 9 10 10 11 12 14 15 15 14
20 19 19 18 16 14 12 12 12 12 11 10 10 10 10 9 8 7 8 7 5 4 5 5 4 4 3 4 5 3 1 3 4 5 7 7 8 7 7 7 6 6 7 7 4 5 7 9 9 9 9 8 7 5 5 8 7 3 3 4 4 5 6 6 6 6 5 6 6 6 7 8 7 6 5 6 6 6 7 8 9 10 11 11 13 14 15 15
20 19 18 17 16 13 12 11 11 10 10 10 10 10 9 9 8 7 8 7 5 4 5 5 5 5 4 5 6 5 3 3 4 4 7 8 8 7 6 7 7 6 8 8 5 4 6 8 8 8 8 7 5 4 5 7 6 4 5 5 5 5 6 6 6 5 5 7 6 5 6 8 7 6 6 6 6 5 5 6 7 8 10 10 11 12 14 15
20 19 18 16 14 12 10 10 10 10 9 9 9 9 9 8 8 8 8 7 5 5 5 6 6 6 6 6 6 6 5 3 3 5 8 8 9 8 6 6 7 7 7 9 7 5 6 7 7 7 6 5 5 4 5 5 5 5 6 6 5 6 6 6 5 5 6 6 5 5 6 7 7 6 5 6 6 5 5 5 5 6 8 9 10 11 12 14
20 19 17 15 12 11 10 9 9 9 8 9 8 8 8 8 8 9 8 6 6 5 6 7 7 6 7 8 6 6 6 4 4 7 8 8 9 9 8 7 7 8 8 8 9 8 8 9 8 7 6 6 6 5 4 5 5 5 5 5 6 5 5 6 5 6 7 5 4 4 6 7 8 6 5 6 7 7 7 7 6 6 7 8 9 10 11 13
20 18 16 13 11 10 10 9 8 7 7 8 8 8 8 7 9 9 7 6 6 6 6 7 7 7 8 8 7 7 7 5 5 8 9 9 9 9 9 8 7 8 8 8 9 9 9 9 8 7 7 8 7 6 5 5 5 5 5 6 6 5 5 6 6 6 7 5 4 5 5 7 9 8 6 7 8 8 8 8 8 7 7 7 8 9 10 11
19 16 14 12 11 10 10 9 8 8 7 7 8 8 8 8 9 8 7 7 6 6 6 6 7 8 8 8 8 8 7 6 7 8 9 10 10 10 11 9 8 7 6 7 8 9 9 8 9 9 8 9 9 6 6 6 6 6 5 6 6 5 5 6 5 6 6 4 4 5 6 7 8 7 6 7 7 7 8 8 8 7 7 8 8 8 9 10
18 14 12 11 11 11 10 9 8 7 7 7 7 8 9 9 8 7 8 7 6 6 7 7 8 9 9 9 8 8 8 7 8 8 9 10 10 10 11 10 11 9 6 6 8 8 8 7 10 10 8 9 10 7 5 5 6 6 5 5 5 5 5 5 4 5 5 3 4 5 6 7 7 5 5 5 5 6 6 7 7 7 7 8 8 8 9 10
16 12 10 10 10 10 9 8 7 6 6 6 7 8 9 10 7 7 8 7 7 7 7 8 9 10 11 10 8 9 8 7 8 9 9 10 10 11 11 11 12 11 8 7 7 8 8 5 7 8 7 9 10 8 6 5 5 5 5 6 5 4 4 4 5 5 6 6 5 6 7 7 6 6 6 5 5 5 6 7 7 7 7 7 8 9 9 9
13 10 10 10 10 10 8 7 6 5 6 6 7 8 9 8 7 6 7 7 8 8 8 9 10 10 11 10 9 10 8 7 9 9 9 10 11 11 11 10 12 12 11 8 6 8 8 5 6 7 8 9 8 8 7 6 4 4 5 6 4 3 4 5 4 5 7 7 5 5 7 7 6 7 7 7 7 6 6 7 7 7 8 8 8 8 9 9
12 10 10 9 9 9 8 7 6 6 6 7 8 8 8 7 7 7 7 8 9 9 9 9 9 10 10 10 10 11 10 8 9 9 9 10 10 11 13 11 11 13 13 10 7 7 7 6 6 8 8 8 7 7 8 7 5 4 5 5 3 3 4 4 4 3 5 6 4 4 7 6 5 6 6 7 8 7 7 7 6 7 8 8 7 8 8 9
12 10 9 10 10 9 8 7 6 6 7 7 8 8 8 8 8 8 8 8 9 10 10 9 8 9 10 10 10 11 11 10 10 10 9 9 9 10 13 13 12 13 13 12 9 7 8 6 5 7 8 8 9 8 7 7 7 6 4 4 4 4 4 3 4 4 4 4 3 3 5 6 6 5 5 7 8 8 7 6 6 6 6 7 7 7 8 9
11 10 9 10 10 9 8 7 6 6 7 8 8 8 8 9 8 9 9 9 10 10 10 10 9 10 10 10 9 10 12 11 10 11 10 10 9 9 12 12 12 13 13 13 10 8 9 8 5 6 8 8 10 10 8 8 8 7 6 6 5 4 3 3 4 4 4 5 4 4 4 4 3 4 5 5 6 7 7 7 6 6 5 6 6 6 7 8
11 10 9 10 10 9 9 7 6 6 7 8 8 8 8 9 10 10 10 10 11 11 10 10 10 10 11 11 10 10 12 12 11 11 11 10 10 10 11 12 12 12 13 13 12 10 10 9 7 6 8 10 11 10 9 8 8 8 8 7 6 5 5 5 5 5 5 6 5 5 5 2 2 5 5 5 5 6 6 6 6 6 6 6 6 6 7 8
11 10 9 10 11 10 9 8 7 7 8 8 9 9 9 10 11 11 11 11 12 12 12 12 12 12 11 12 11 10 11 12 12 12 11 11 12 11 11 12 12 12 12 13 13 12 11 10 9 8 9 10 9 9 9 8 8 8 8 8 7 6 6 6 6 5 6 7 6 6 7 4 3 4 4 4 5 5 6 6 7 6 6 6 6 6 6 7
12 11 10 11 11 11 10 9 8 8 9 9 9 9 10 10 11 11 11 12 13 13 14 14 14 14 13 13 13 11 12 13 13 12 11 12 13 12 10 11 13 13 13 13 13 12 11 10 11 9 8 8 7 7 10 10 10 10 9 8 8 8 8 8 7 5 5 6 6 7 8 5 3 4 4 4 5 5 6 6 7 6 6 6 7 6 6 7
12 12 11 12 12 12 11 10 9 10 10 9 10 10 10 11 11 11 11 12 12 13 14 14 15 15 14 14 13 13 13 13 13 13 12 12 12 11 10 12 13 13 13 13 12 12 11 11 12 10 9 9 8 9 10 11 12 12 11 10 10 9 9 9 8 7 7 7 6 7 8 5 3 4 4 4 5 5 6 7 7 6 6 6 7 7 7 7
14 13 12 12 12 12 12 11 10 10 10 10 11 11 11 12 12 12 12 12 12 12 13 14 15 15 14 14 14 14 13 13 14 14 13 12 11 10 11 13 13 13 13 12 12 13 12 11 12 11 10 10 10 10 11 12 13 12 11 10 11 11 10 10 9 8 10 9 8 9 8 4 3 4 4 5 5 6 6 6 7 6 6 6 7 7 7 7
15 13 12 13 12 12 12 12 12 12 11 11 12 12 11 12 12 12 13 13 13 13 14 14 14 15 15 15 16 16 15 15 14 13 13 13 12 11 12 14 14 14 13 11 11 13 13 12 12 12 12 11 10 10 10 10 12 12 11 11 12 12 11 11 10 10 11 9 9 10 9 4 4 5 5 5 6 6 6 6 6 7 6 7 7 7 7 8
15 14 13 13 13 13 13 12 13 13 12 13 13 12 12 12 12 12 13 13 13 13 15 15 15 16 17 17 17 17 17 17 16 14 14 14 12 11 12 14 15 14 12 11 13 13 12 12 13 13 13 11 9 8 8 9 10 11 12 12 13 13 13 12 11 11 11 9 10 11 10 8 7 6 6 6 6 6 6 6 7 7 7 7 7 7 7 7
16 15 14 14 14 14 13 13 14 14 13 14 13 12 13 13 12 12 13 13 13 13 15 15 16 16 17 17 18 17 17 18 17 17 16 15 13 11 12 15 15 14 13 14 15 14 12 13 14 15 14 12 10 9 9 11 12 12 12 13 13 13 13 13 14 12 10 11 11 10 10 11 10 7 7 7 7 7 7 6 7 7 7 7 6 7 7 8
16 16 15 15 15 15 14 14 14 15 15 15 14 14 14 14 14 13 12 13 13 13 13 14 16 16 16 16 17 17 17 18 18 18 17 16 15 13 13 15 16 15 15 16 16 14 13 14 14 15 15 13 12 11 11 12 13 13 13 13 13 14 14 15 16 14 12 14 13 10 10 13 11 9 8 7 7 7 7 6 7 7 7 7 7 7 8 8
17 17 16 16 17 17 17 17 16 17 17 16 15 16 16 15 15 14 13 13 14 14 13 14 14 15 16 17 17 18 17 17 18 18 16 16 16 16 15 15 15 16 17 17 16 15 14 13 13 14 15 14 13 13 13 13 13 13 14 14 13 14 15 16 16 15 14 15 15 13 13 15 13 10 9 8 7 7 6 6 7 7 8 9 9 9 9 9
18 18 18 18 19 18 18 18 17 17 17 16 16 16 16 16 16 15 14 15 15 13 13 14 14 14 15 17 18 18 17 16 17 16 15 16 17 16 16 15 15 17 18 17 16 16 15 14 13 14 15 14 14 14 14 14 14 14 14 14 14 14 15 16 16 15 15 16 16 16 16 16 14 12 10 9 9 8 8 8 8 8 9 10 10 11 10 10
20 20 19 19 19 18 18 18 17 17 17 17 17 16 16 16 16 15 16 17 17 15 14 14 14 14 15 17 17 17 16 16 18 17 17 18 17 16 16 15 15 16 18 18 17 17 17 15 14 15 16 15 14 15 14 14 14 15 15 15 14 14 15 15 15 15 16 16 16 17 17 15 13 12 12 11 11 10 10 9 9 9 10 10 11 11 11 11
20 20 19 20 19 18 18 18 17 17 17 16 17 17 17 16 16 16 16 16 17 17 15 14 14 14 15 16 16 15 16 18 19 19 19 19 19 18 18 18 17 17 18 18 18 18 18 16 15 15 17 15 14 15 14 14 15 16 15 15 15 15 15 15 14 14 15 16 16 16 15 13 12 13 13 13 12 12 11 10 9 9 10 11 11 12 12 12
Wind_Direction
26 23 20 17 15 12 10 8 6 4 3 2 0 358 355 353 350 350 351 350 350 350 349 349 346 343 339 335 329 318 302 282 262 242 238 237 226 220 214 205 199 193 192 192 193 188 182 187 191 201 210 195 171 127 143 159 160 163 170 171 167 161 157 151 141 140 152 150 133 134 143 131 126 119 113 119 116 117 120 120 112 104 112 119 124 130 134 138
21 18 15 12 10 8 6 4 3 1 359 358 356 355 353 350 348 346 347 346 347 347 346 346 343 341 338 334 330 321 308 280 257 246 239 231 218 213 211 203 198 195 194 195 197 198 195 193 197 200 199 192 160 146 154 157 168 174 176 175 166 160 161 159 142 133 141 147 137 134 143 138 131 124 123 125 124 126 120 123 124 114 118 125 129 133 137 141
16 14 11 9 7 5 3 1 360 357 355 353 352 350 348 347 346 345 344 344 343 343 342 342 341 340 337 335 330 322 312 278 254 246 235 222 214 210 206 202 201 200 200 203 205 207 209 202 203 205 204 196 162 166 166 155 166 172 181 175 161 166 161 151 144 137 134 150 147 139 140 138 133 130 128 126 130 134 119 125 137 130 132 136 137 139 142 145
13 10 8 7 4 2 1 359 357 354 352 350 348 347 345 344 343 343 343 342 341 340 339 338 337 337 336 335 329 324 305 278 259 245 230 216 211 208 206 205 205 204 206 209 207 208 210 204 205 213 216 199 171 184 170 158 166 151 170 170 157 176 167 150 146 143 153 166 158 146 144 140 136 136 131 125 126 133 126 124 138 140 141 143 143 144 144 145
10 8 6 4 2 0 358 356 354 352 350 348 346 344 342 341 340 340 340 341 340 338 337 335 334 333 334 333 328 322 305 292 275 248 227 214 211 210 210 210 207 207 208 207 205 204 204 206 213 218 217 204 186 190 168 160 172 143 141 153 158 186 173 159 155 153 161 166 162 156 152 144 142 141 138 131 114 116 126 121 129 141 145 146 146 146 146 146
8 6 4 2 360 358 356 353 351 349 347 345 344 342 340 339 338 337 338 338 338 338 335 333 332 331 332 331 327 314 307 313 292 252 225 216 213 213 216 215 211 209 207 205 205 204 205 210 217 220 220 217 203 192 173 170 186 172 139 135 143 166 165 166 169 167 167 166 167 161 151 151 156 148 145 145 114 108 123 122 127 139 144 145 145 147 150 148
5 3 1 360 357 355 353 350 348 346 345 343 342 340 338 337 335 335 335 335 335 335 334 331 330 330 330 328 322 305 307 327 303 256 227 219 215 215 218 217 214 209 206 206 206 206 209 213 216 221 224 219 205 192 180 176 192 192 151 132 133 147 157 170 179 173 167 167 168 166 162 166 170 156 153 161 138 126 130 127 129 138 144 145 147 150 151 148
1 360 358 356 354 353 350 348 345 343 341 340 339 338 337 336 334 333 331 331 331 331 332 331 330 331 331 328 319 306 314 328 301 263 233 223 218 217 216 217 215 209 207 207 207 209 212 213 214 219 219 216 209 192 185 186 192 187 161 154 152 159 165 173 183 176 170 172 173 176 174 170 172 168 166 164 151 147 142 136 134 139 147 149 151 152 150 148
357 356 355 353 351 350 348 346 343 341 339 337 336 335 335 334 333 331 329 328 327 327 330 331 331 330 330 326 315 310 319 315 291 264 240 227 221 217 216 218 214 209 208 207 208 212 215 211 207 218 222 220 207 185 189 201 200 186 174 170 169 177 186 189 185 180 179 180 182 184 179 171 175 184 178 162 155 159 153 146 142 144 151 153 154 153 150 150
353 352 351 349 348 347 346 343 340 339 336 334 333 332 332 332 331 330 328 326 324 325 328 331 334 331 327 322 313 313 319 306 284 259 245 231 222 217 217 217 210 208 207 204 207 210 214 208 204 219 222 210 194 184 198 212 197 184 177 171 176 187 195 209 201 190 189 185 188 192 184 176 179 190 181 161 164 170 163 155 151 151 154 156 156 153 153 152
348 347 346 345 344 343 342 340 338 336 334 332 331 330 330 330 330 329 327 325 324 324 327 331 333 330 327 319 316 321 316 302 282 255 248 230 219 215 216 213 207 206 203 202 207 210 212 206 206 217 213 200 191 187 195 199 190 183 184 177 176 190 195 210 211 203 201 196 198 196 188 184 184 188 180 161 170 175 168 162 158 156 156 158 156 153 156 153
344 343 343 342 341 340 339 337 335 334 332 330 329 329 328 328 329 328 327 325 324 322 325 328 328 332 329 318 319 325 312 299 280 255 247 228 217 212 212 209 205 205 202 201 204 208 211 204 208 216 210 206 201 196 193 196 197 189 207 205 189 203 201 210 216 214 211 205 204 201 196 195 191 186 175 167 172 175 172 166 163 162 159 160 159 155 158 155
340 340 339 339 338 337 335 334 332 331 329 327 327 327 326 327 328 327 325 324 323 322 322 325 328 333 328 323 331 326 310 298 276 249 232 217 210 204 205 204 203 205 203 203 202 205 209 202 208 214 208 208 202 198 195 198 204 199 221 231 224 220 212 228 221 213 210 206 207 207 203 195 186 180 175 175 175 176 177 170 166 166 164 164 163 161 161 158
336 336 335 335 334 334 332 330 329 328 326 325 325 325 325 326 327 327 324 322 324 324 323 325 331 333 326 330 339 324 313 300 262 228 212 198 193 192 195 198 201 203 203 204 203 206 208 202 206 205 203 209 200 195 198 200 206 205 227 231 243 246 233 251 216 207 206 204 206 207 205 189 178 176 177 180 181 180 179 173 169 169 170 169 167 168 164 161
331 331 331 331 331 330 329 327 327 326 324 323 323 323 324 326 328 329 325 323 322 321 324 325 329 329 322 327 337 326 318 297 242 216 207 192 188 185 187 194 198 202 204 205 205 208 207 202 203 198 195 202 200 199 204 205 201 202 213 183 306 315 134 88 186 204 205 200 203 208 208 188 172 173 180 184 184 182 182 177 173 172 174 173 171 173 168 163
327 327 327 327 327 327 327 325 324 323 321 320 320 320 323 327 331 331 329 326 319 316 320 322 325 323 321 328 332 322 312 287 231 208 206 202 200 188 185 193 198 202 204 204 205 206 205 202 202 201 198 196 199 203 205 202 193 193 208 139 19 12 84 88 128 190 197 193 196 202 207 189 173 175 180 186 186 185 188 183 178 177 177 177 175 176 171 166
324 324 324 324 324 325 325 323 322 321 319 317 316 316 320 324 328 332 331 324 317 314 314 317 321 319 320 325 318 315 314 279 213 201 203 206 204 186 185 193 197 200 201 202 203 204 205 203 201 203 204 201 203 205 200 194 184 185 210 202 72 45 56 96 131 162 178 189 191 200 212 199 188 191 185 190 190 189 194 188 183 181 179 180 181 178 174 172
321 321 321 320 320 321 322 322 321 319 316 314 312 312 316 317 318 321 319 316 313 310 310 310 310 316 316 306 307 321 319 256 208 203 199 200 198 192 195 197 196 197 199 202 202 202 203 203 204 207 206 205 205 204 201 197 198 215 245 239 184 74 75 100 125 150 161 175 183 199 218 208 203 202 193 194 192 192 197 192 186 184 181 181 184 182 178 177
318 318 318 317 317 318 319 320 319 317 314 310 306 307 309 307 306 306 305 307 304 302 311 307 294 315 324 300 311 322 295 236 205 201 194 195 196 199 202 198 195 197 200 201 200 200 203 203 205 210 210 207 205 208 220 224 224 242 246 246 260 170 124 110 119 150 161 169 173 183 203 199 204 203 193 195 193 195 199 194 190 189 185 184 186 187 184 182
316 315 314 314 314 315 316 318 317 314 311 305 300 301 300 300 301 302 301 298 293 294 302 296 284 302 312 294 305 308 264 223 213 202 192 194 191 193 196 193 192 197 204 204 199 199 205 207 207 210 210 203 204 216 233 234 229 245 243 239 247 210 186 160 145 164 180 190 184 183 181 186 199 200 190 195 196 200 202 197 195 195 192 191 192 193 191 188
315 313 312 311 311 311 311 314 313 309 306 300 294 295 300 306 305 308 310 300 291 290 290 288 284 290 296 294 296 285 245 226 218 199 191 194 191 191 193 190 190 195 203 204 202 200 204 212 212 211 206 201 209 221 230 232 233 243 243 243 243 216 207 199 178 177 195 215 202 196 198 193 200 201 191 197 204 206 206 204 202 201 200 198 197 198 198 195
315 313 311 309 308 307 306 308 307 303 300 293 289 293 301 309 305 307 309 303 296 290 284 282 280 279 281 278 273 273 253 222 206 196 194 196 196 198 194 192 197 197 195 201 204 200 206 215 213 207 207 209 218 225 231 236 237 239 240 243 241 214 208 209 205 195 198 216 213 205 217 212 207 205 195 199 209 212 211 211 210 209 208 206 204 202 202 202
315 313 311 308 306 304 302 303 300 295 293 288 286 291 295 301 304 304 302 300 299 289 275 267 265 267 264 262 257 251 241 212 199 196 195 198 200 203 200 194 197 195 190 196 200 199 205 214 213 208 209 214 221 224 229 232 229 232 238 242 236 220 222 223 215 210 207 217 226 228 231 225 212 209 207 207 211 214 213 215 218 219 217 215 213 210 207 207
317 314 312 309 306 302 300 298 291 285 287 285 280 284 289 295 304 304 298 297 296 285 270 258 260 262 254 265 240 220 227 216 205 196 192 198 198 197 202 196 193 195 192 195 201 205 208 207 210 212 211 218 225 224 225 225 221 221 229 241 239 224 228 225 210 211 216 220 229 242 237 225 216 214 218 219 215 216 216 218 221 223 223 221 220 218 215 212
320 317 315 312 308 304 300 293 281 280 286 281 273 275 284 294 302 300 296 295 287 275 260 245 251 253 242 249 214 209 225 217 208 192 186 197 194 186 195 194 193 195 188 189 199 210 209 194 197 207 209 216 223 225 223 224 227 219 216 241 241 219 213 208 202 212 227 224 227 242 236 218 218 218 216 218 221 223 221 222 223 222 222 222 223 222 220 217
323 321 319 315 311 307 300 287 277 283 284 276 270 271 278 292 298 294 294 292 280 261 240 231 238 232 224 219 191 202 232 211 198 185 185 198 198 192 192 185 191 197 181 184 199 209 199 185 189 198 200 206 216 225 220 218 229 223 213 236 236 220 214 207 205 218 235 228 223 235 234 225 226 219 211 216 227 230 226 227 227 224 222 221 222 223 222 220
325 323 321 318 314 309 300 286 282 284 279 272 268 267 275 287 289 287 288 281 270 257 234 229 239 231 226 213 191 213 243 184 181 192 194 198 196 199 199 185 189 193 180 186 200 201 191 187 192 198 198 202 209 215 205 205 218 216 212 229 226 218 219 213 214 227 235 227 223 227 232 239 235 222 219 224 227 227 225 228 228 225 223 220 219 220 221 221
328 325 322 318 314 307 297 289 285 280 275 272 266 263 271 278 277 277 280 276 269 258 237 227 239 233 228 216 208 235 260 178 199 201 195 199 195 200 206 199 201 192 185 198 196 180 190 193 192 195 199 202 204 202 192 202 216 217 215 223 219 219 220 218 224 233 235 233 231 226 233 244 236 221 225 228 225 224 224 225 224 222 221 221 219 217 218 220
330 326 322 319 314 307 297 289 283 276 274 271 263 262 265 266 268 268 272 276 264 249 237 224 227 224 219 216 216 231 233 217 231 196 187 202 202 204 213 209 214 205 196 211 211 174 184 191 190 194 202 204 202 201 200 209 218 218 221 224 224 227 222 222 229 229 234 242 241 233 238 249 239 217 221 230 227 223 222 223 223 223 223 223 222 218 216 218
330 327 324 321 317 310 301 292 282 276 273 268 262 260 257 255 262 260 260 265 254 242 235 222 223 221 213 212 215 221 221 222 223 193 192 203 202 208 218 209 216 218 207 214 220 198 180 184 194 203 209 204 192 192 202 210 209 209 222 223 222 227 222 222 232 234 243 245 236 231 242 251 244 221 220 234 234 232 233 232 229 226 226 227 226 220 216 217
330 327 325 322 319 313 306 299 288 278 270 266 262 253 249 251 259 259 255 257 253 241 229 220 220 221 215 216 218 214 215 215 199 196 199 202 202 207 211 206 210 213 210 211 211 202 193 194 199 202 202 195 185 187 199 207 208 216 227 220 216 223 221 225 234 239 247 241 219 230 241 244 243 239 236 234 234 238 241 245 245 235 229 229 229 226 220 218
330 327 326 325 323 317 310 304 296 284 270 266 259 244 245 250 252 255 253 250 247 237 232 224 217 221 221 222 223 211 211 216 204 203 205 204 206 208 208 207 202 203 210 206 197 197 199 199 196 194 199 201 195 191 201 211 217 224 223 215 217 219 222 232 233 238 249 238 216 233 239 243 248 251 250 240 236 241 243 246 249 243 236 232 232 232 227 222
329 328 327 327 325 320 312 304 294 283 274 265 252 241 247 253 251 253 249 245 246 242 239 231 222 225 224 224 223 213 213 217 206 207 209 209 213 212 211 214 213 216 216 199 192 192 194 200 204 204 206 211 211 208 209 212 215 219 217 217 226 231 236 239 233 238 248 231 216 237 244 251 252 246 247 245 241 243 239 239 244 242 241 237 234 234 230 225
328 327 328 328 324 320 315 305 291 283 274 258 247 241 244 251 255 254 246 244 251 244 236 234 232 230 226 226 223 213 219 224 210 210 211 212 218 216 213 215 214 219 221 205 203 202 204 209 206 206 206 206 214 225 230 222 213 217 226 231 242 252 250 253 250 254 261 241 226 236 244 256 256 241 246 250 239 234 233 234 240 240 237 237 236 235 233 229
327 326 329 330 328 325 320 309 295 281 268 254 248 244 242 249 257 252 246 246 248 245 242 240 237 231 225 226 226 218 227 230 213 213 215 214 218 217 215 213 207 210 216 209 203 207 221 220 192 199 209 206 213 222 228 233 220 216 228 232 240 253 253 264 273 279 283 269 242 236 247 260 260 247 244 246 236 232 236 235 237 241 239 238 239 236 236 233
326 325 330 334 335 335 329 318 303 281 268 260 252 249 249 256 262 256 252 251 246 249 252 241 230 229 224 221 223 220 225 228 214 215 218 217 222 220 215 211 203 205 210 208 201 204 217 214 188 203 213 211 220 216 214 232 227 208 220 223 226 252 262 266 266 267 273 267 253 250 257 256 252 248 242 243 244 239 241 238 236 244 244 241 242 241 240 237
328 325 331 337 337 336 334 325 310 283 271 265 258 260 261 262 263 259 257 253 244 243 249 241 227 229 228 223 223 216 216 222 216 217 219 215 220 219 213 212 208 208 212 217 218 213 219 214 194 205 208 205 216 213 211 227 229 221 223 211 207 241 256 265 271 264 261 263 260 262 270 267 259 258 245 241 245 239 238 240 234 239 243 244 243 241 243 242
327 322 327 336 334 332 332 326 310 285 273 267 265 270 269 263 260 258 258 255 245 238 242 242 234 232 230 228 225 213 212 219 215 217 220 214 216 215 212 212 211 211 215 220 222 220 227 224 200 205 208 198 204 211 212 216 223 238 236 212 221 242 239 248 273 278 275 280 277 269 279 273 262 267 257 245 245 237 233 235 234 237 242 247 245 239 243 245
320 316 322 332 330 327 326 323 309 287 275 270 269 272 269 263 258 256 255 253 246 239 240 242 236 233 231 232 231 216 214 221 217 218 222 217 216 214 212 214 211 211 213 217 221 221 224 231 219 205 205 202 207 217 221 213 215 230 232 222 236 255 255 257 271 282 287 294 296 288 286 270 255 280 280 261 249 238 232 235 239 244 246 250 252 246 246 248
316 312 319 328 326 324 322 314 302 286 280 280 279 278 272 266 262 257 252 249 245 241 240 241 236 234 234 235 236 227 221 225 224 223 223 218 218 217 214 216 214 211 212 216 223 221 218 228 229 204 204 215 219 222 229 223 214 222 229 230 237 246 256 261 262 270 285 294 297 292 290 287 284 290 281 260 248 240 240 244 244 247 249 252 259 259 255 251
312 308 315 323 321 320 314 303 297 290 285 286 284 279 275 273 269 261 252 248 246 242 241 243 239 239 240 236 234 231 228 229 227 227 226 221 222 224 220 220 218 213 214 218 222 220 218 224 228 216 213 220 222 226 238 238 231 234 239 240 240 242 251 260 259 257 272 285 293 295 294 293 285 284 276 259 252 247 249 251 248 248 251 254 260 264 263 257
308 306 311 317 315 312 305 298 298 294 288 288 287 281 279 277 271 265 257 250 247 243 239 240 239 239 240 238 237 237 234 232 227 227 228 225 225 227 223 221 221 217 218 221 219 217 219 224 228 230 228 227 227 233 238 240 240 244 249 249 250 251 253 262 270 267 265 273 280 286 288 285 269 272 272 263 260 255 254 254 252 250 249 253 258 261 263 261
307 307 306 309 309 305 299 295 293 289 287 290 289 282 278 275 269 265 261 253 249 244 239 238 238 236 236 236 238 237 234 233 230 228 230 229 228 227 221 218 220 220 220 220 215 212 218 226 228 233 236 234 234 233 233 234 236 240 243 245 251 257 259 265 275 278 273 269 268 275 280 276 259 268 273 266 261 257 255 255 254 252 250 251 255 257 260 262
303 301 300 303 305 299 294 293 291 288 287 288 285 279 274 272 269 266 262 256 250 246 242 239 236 234 234 235 235 236 234 233 231 228 231 232 229 226 222 218 221 221 219 221 216 211 218 225 227 232 233 230 230 230 227 229 232 238 240 240 248 254 255 261 267 269 270 267 265 273 282 276 253 267 275 267 261 260 258 256 254 254 253 251 252 255 256 258
299 295 294 298 300 295 292 293 292 289 288 285 283 279 274 271 268 265 265 260 252 248 245 241 237 234 234 234 235 236 235 233 231 229 231 233 229 227 225 221 222 222 222 227 221 214 221 227 227 233 236 233 234 232 230 230 229 233 237 239 246 247 245 253 260 261 263 262 257 263 274 279 258 261 271 268 264 265 262 258 255 254 253 253 253 255 256 257
298 295 294 295 295 293 290 290 287 286 287 285 282 279 274 271 267 264 264 259 252 250 247 243 240 237 234 234 235 236 234 232 232 232 232 232 230 228 224 221 222 223 224 227 222 218 226 231 230 236 241 242 243 238 236 238 234 235 239 241 244 245 244 250 258 261 263 263 259 258 264 272 265 257 263 266 263 265 263 259 257 254 252 253 254 256 258 260
293 294 295 295 293 289 287 286 284 283 284 283 282 279 274 271 268 263 260 256 254 252 249 244 241 237 234 232 234 236 234 230 231 233 234 234 232 229 223 222 224 223 221 222 221 221 231 234 231 236 240 244 247 242 238 242 246 249 249 245 243 243 243 246 252 259 262 262 266 262 256 262 265 259 260 260 257 263 265 260 257 255 254 257 258 258 258 260
290 292 294 293 290 286 285 287 287 284 281 279 278 277 272 270 268 264 259 257 255 253 249 243 237 236 237 234 234 234 232 230 231 231 233 233 232 228 224 224 224 221 219 221 222 225 234 235 231 233 238 241 244 244 244 246 251 255 252 247 244 241 242 246 249 254 256 258 266 266 253 256 262 260 259 258 255 260 266 266 261 258 257 261 262 260 261 262
289 289 289 287 286 285 285 286 285 282 278 275 275 273 269 267 266 263 260 259 256 250 248 245 239 238 239 236 233 233 231 231 231 229 230 233 232 228 226 225 224 221 221 223 223 228 236 237 233 235 238 240 240 243 247 248 250 251 249 248 246 244 245 247 249 251 252 255 261 263 258 258 260 259 258 259 258 259 264 268 265 259 257 260 263 264 264 265
289 289 288 286 284 283 282 281 279 278 275 273 273 272 268 266 265 262 259 256 254 250 247 247 247 245 242 236 233 232 232 234 234 232 232 233 232 230 228 228 227 222 222 224 224 227 234 237 236 237 241 241 239 242 246 246 247 249 247 247 248 248 247 248 250 252 251 254 257 258 259 259 256 254 254 254 256 255 254 258 263 263 261 260 262 265 265 265
287 287 286 285 283 281 280 278 276 276 274 271 270 270 268 265 264 264 259 253 252 253 252 251 251 248 241 234 231 233 235 238 238 238 238 236 235 235 232 233 232 225 222 225 225 226 230 234 234 236 242 243 239 240 243 244 248 250 248 247 248 249 250 249 251 251 252 255 256 254 257 258 252 248 247 247 250 253 251 253 260 265 266 265 265 267 267 267
286 285 283 282 281 278 277 277 274 274 274 273 271 269 268 266 264 264 261 252 248 249 251 252 252 247 239 234 233 239 244 243 241 241 240 237 238 238 236 237 238 233 226 225 227 227 229 233 234 236 243 245 238 238 243 244 248 251 249 249 249 249 251 252 253 253 253 255 256 255 256 256 248 244 245 243 246 251 252 255 260 265 267 269 270 269 269 269